DateTimeUTC,F1_A11,F1_S11,BsB_S11,BsG_S11,BsR_S11,BbsB_S11,BbsG_S11,BbsR_S11,BaB_A11,BaG_A11,BaR_A11,Tu_S11,T_S11,Uu_S11,U_S11,P_S11,T1_A11
2021-04-23T10:00:00Z,00000200,21000000,,,,,,,-000.26,0000.14,-000.29,17.7,24.9,01.5,01.0,0673.0,31.1
2021-04-23T10:01:00Z,00000200,21000000,,,,,,,0000.20,-000.24,0000.09,17.7,24.9,01.2,00.8,0673.0,31.1
2021-04-23T10:02:00Z,00000200,21000000,,,,,,,0000.18,0000.49,0000.18,17.7,24.9,01.2,00.8,0673.0,31.1
2021-04-23T10:03:00Z,00000200,61000000,,,,,,,0000.73,0000.38,0000.35,17.7,24.9,01.2,00.8,0673.0,31.1
2021-04-23T10:04:00Z,00000200,41000000,0002.10,0001.99,0000.51,0000.25,0000.24,-000.16,0000.51,0000.48,0000.49,17.8,24.8,01.3,00.9,0673.9,31.1
2021-04-23T10:05:00Z,00000200,01000000,0002.68,0001.85,0001.11,-000.40,0000.46,0000.28,0000.82,0000.98,0000.37,17.9,24.7,01.3,00.8,0674.0,31.1
2021-04-23T10:06:00Z,00000200,01000000,0002.48,0002.21,0001.03,0000.61,0000.34,0000.23,0000.97,0000.70,0000.97,17.9,24.7,01.2,00.8,0674.0,31.1
2021-04-23T10:07:00Z,00000200,01000000,0002.84,0002.03,0000.83,0000.30,0000.12,0000.05,0001.11,0000.95,0000.45,17.9,24.7,01.4,00.9,0674.0,31.1
2021-04-23T10:08:00Z,00000200,01000000,0002.21,0001.66,0000.99,-000.13,0000.58,0000.12,0000.91,0001.19,0000.61,17.9,24.7,01.4,00.9,0674.0,31.1
2021-04-23T10:09:00Z,00000200,01000000,0002.21,0001.66,0000.97,0000.53,0000.35,0000.08,0000.93,0000.66,0001.03,17.9,24.7,01.5,01.0,0674.0,31.1
2021-04-23T10:10:00Z,00000200,01000000,0002.43,0002.01,0001.33,0000.40,0000.35,0000.29,0001.04,0000.71,0000.68,17.9,24.7,01.4,00.9,0674.0,31.1
2021-04-23T10:11:00Z,00000200,01000000,0002.13,0002.09,0001.31,0000.46,0000.22,0000.19,0000.52,0000.80,0000.22,17.9,24.7,01.4,00.9,0674.1,31.1
2021-04-23T10:12:00Z,00000200,01000000,0002.17,0001.88,0000.77,0000.55,0000.49,0000.20,0000.77,0000.58,0000.44,17.9,24.7,01.4,00.9,0674.1,31.1
2021-04-23T10:13:00Z,00000200,01000000,0002.27,0001.93,0001.41,0000.21,0000.25,0000.34,0000.95,0000.90,0000.72,18.0,24.7,01.3,00.8,0674.1,31.1
2021-04-23T10:14:00Z,00000200,01000000,0002.31,0001.94,0000.99,0000.26,0000.18,0000.26,0001.06,0000.68,0000.61,18.0,24.7,01.4,00.9,0674.1,31.1
2021-04-23T10:15:00Z,00000200,01000000,0002.61,0001.86,0001.29,0000.13,0000.38,0000.21,0001.33,0001.10,0000.80,18.0,24.7,01.3,00.9,0674.1,31.1
2021-04-23T10:16:00Z,00000200,01000000,0002.86,0002.10,0001.01,0000.58,0000.50,0000.40,0000.93,0001.07,0000.84,18.0,24.7,01.5,01.0,0674.1,31.1
2021-04-23T10:17:00Z,00000200,01000000,0002.88,0001.83,0001.34,0000.53,0000.58,0000.01,0001.09,0000.99,0000.50,18.0,24.8,01.5,01.0,0674.1,31.1
2021-04-23T10:18:00Z,00000200,01000000,0002.26,0001.97,0001.10,0000.22,0000.23,0000.18,0000.80,0000.87,0000.93,18.0,24.8,01.6,01.1,0674.1,31.1
2021-04-23T10:19:00Z,00000200,01000000,0002.38,0002.20,0000.87,0000.14,0000.32,0000.02,0001.09,0000.49,0000.95,18.0,24.8,01.6,01.0,0674.1,31.1
2021-04-23T10:20:00Z,00000200,01000000,0003.29,0001.94,0001.23,0000.27,0000.30,0000.08,0000.76,0001.16,0000.25,18.0,24.8,01.6,01.0,0674.1,31.1
2021-04-23T10:21:00Z,00000200,01000000,0002.21,0001.67,0001.27,0000.23,0000.18,0000.22,0001.17,0000.83,0000.73,18.0,24.8,01.6,01.1,0674.1,31.1
2021-04-23T10:22:00Z,00000200,01000000,0002.61,0002.04,0001.02,0000.23,0000.21,-000.16,0001.39,0001.08,0000.88,18.0,24.8,01.8,01.2,0674.1,31.1
2021-04-23T10:23:00Z,00000200,01000000,0002.02,0002.23,0001.13,0000.15,0000.24,0000.12,0000.47,0000.69,0000.53,18.0,24.8,01.8,01.2,0674.1,31.1
2021-04-23T10:24:00Z,00000200,01000000,0002.59,0001.97,0001.15,-000.09,0000.29,0000.46,0000.98,0000.56,0000.53,18.1,24.8,01.7,01.1,0674.1,31.1
2021-04-23T10:25:00Z,00000200,01000000,0002.33,0002.33,0001.24,-000.09,0000.24,0000.28,0000.79,0001.13,0000.50,18.1,24.8,01.6,01.1,0674.1,31.1
2021-04-23T10:26:00Z,00000200,01000000,0002.65,0002.08,0000.95,0000.76,0000.25,0000.02,0000.90,0000.57,0000.74,18.1,24.8,01.6,01.1,0674.1,31.1
2021-04-23T10:27:00Z,00000200,01000000,0002.92,0002.06,0000.90,0000.48,0000.18,0000.26,0001.05,0000.85,0000.49,18.1,24.8,01.6,01.1,0674.1,31.1
2021-04-23T10:28:00Z,00000200,01000000,0002.02,0002.00,0001.11,0000.44,0000.29,0000.42,0000.84,0001.19,0001.03,18.1,24.8,01.7,01.1,0674.1,31.1
2021-04-23T10:29:00Z,00000200,01000000,0002.85,0001.98,0001.06,0000.82,0000.20,0000.26,0001.22,0001.13,0000.51,18.1,24.8,01.6,01.1,0674.1,31.1
2021-04-23T10:30:00Z,00000200,01000000,0002.97,0001.98,0000.96,0000.48,0000.34,0000.20,0000.82,0000.41,0000.66,18.1,24.8,01.9,01.3,0674.1,31.1
2021-04-23T10:31:00Z,00000200,01000000,0002.82,0002.21,0000.80,0000.03,0000.26,0000.11,0000.79,0001.15,0000.48,18.1,24.8,01.9,01.2,0674.1,31.1
2021-04-23T10:32:00Z,00000200,01000000,0002.91,0002.19,0000.96,0000.23,0000.60,0000.35,0001.29,0001.06,0000.94,18.1,24.8,01.8,01.2,0674.1,31.1
2021-04-23T10:33:00Z,00000200,01000000,0002.40,0001.94,0001.22,0000.39,0000.28,0000.46,0000.81,0000.79,0000.66,18.1,24.8,01.9,01.2,0674.1,31.1
2021-04-23T10:34:00Z,00000200,00000000,0003.20,0002.03,0001.06,-000.06,0000.49,0000.21,0001.27,0000.79,0000.82,18.1,24.9,01.9,01.3,0674.1,31.1
2021-04-23T10:35:00Z,00000200,00000000,0002.95,0002.14,0001.03,0000.02,0000.35,0000.28,0000.68,0000.78,0000.19,18.2,24.9,01.9,01.3,0674.1,31.1
2021-04-23T10:36:00Z,00000200,00000000,0002.52,0002.02,0000.95,-000.23,0000.40,0000.25,0000.89,0000.62,0000.80,18.2,24.9,01.9,01.3,0674.1,31.1
2021-04-23T10:37:00Z,00000200,01000000,0001.95,0001.88,0000.71,0000.47,0000.51,0000.16,0000.78,0000.70,0000.55,18.2,24.9,01.8,01.2,0674.1,31.1
2021-04-23T10:38:00Z,00000200,01000000,0002.98,0001.80,0000.85,0000.57,0000.48,0000.37,0000.75,0000.97,0000.42,18.2,24.9,01.8,01.2,0674.1,31.1
2021-04-23T10:39:00Z,00000200,01000000,0002.90,0002.37,0001.30,0000.73,0000.20,0000.20,0001.26,0000.93,0000.72,18.2,24.9,01.8,01.2,0674.1,31.1
2021-04-23T10:40:00Z,00000200,01000000,0001.97,0002.03,0001.25,0000.27,0000.33,0000.22,0001.25,0000.66,0000.98,18.2,24.9,01.8,01.2,0674.2,31.1
2021-04-23T10:41:00Z,00000200,01000000,0002.50,0001.98,0000.96,0000.67,0000.31,0000.11,0000.50,0000.88,0000.17,18.2,24.9,01.8,01.2,0674.2,31.1
2021-04-23T10:42:00Z,00000200,01000000,0002.55,0001.90,0001.22,-000.17,0000.05,0000.11,0000.81,0001.02,0000.74,18.2,24.9,01.7,01.2,0674.2,31.1
2021-04-23T10:43:00Z,00000200,01000000,0002.74,0001.84,0001.06,0000.36,0000.25,0000.21,0000.98,0000.66,0000.71,18.2,24.9,01.7,01.2,0674.2,31.1
2021-04-23T10:44:00Z,00000200,01000000,0002.44,0001.79,0001.07,0000.21,0000.32,0000.26,0001.38,0000.90,0000.65,18.2,24.9,01.7,01.2,0674.2,31.1
2021-04-23T10:45:00Z,00000200,01000000,0002.44,0002.11,0000.93,0000.34,0000.41,0000.30,0001.09,0001.36,0000.92,18.2,24.9,01.8,01.2,0674.1,31.1
2021-04-23T10:46:00Z,00000200,00000000,0002.56,0001.76,0001.09,0000.41,0000.41,0000.23,0000.32,0000.39,0000.62,18.3,24.9,01.9,01.2,0674.1,31.1
2021-04-23T10:47:00Z,00000200,01000000,0002.88,0002.02,0001.29,0000.27,0000.42,-000.01,0001.24,0001.05,0000.72,18.3,25.0,01.9,01.3,0674.1,31.1
2021-04-23T10:48:00Z,00000200,01000000,0003.38,0002.23,0001.35,0000.16,0000.49,0000.35,0000.71,0000.66,0000.33,18.3,25.0,01.8,01.2,0674.1,31.1
2021-04-23T10:49:00Z,00000200,01000000,0002.50,0002.08,0001.18,0000.55,0000.43,0000.13,0000.87,0000.88,0001.07,18.3,25.0,01.7,01.1,0674.1,31.1
2021-04-23T10:50:00Z,00000200,01000000,0003.08,0001.95,0001.14,0000.35,0000.36,0000.31,0001.43,0000.83,0000.77,18.3,25.0,01.8,01.2,0674.1,31.1
2021-04-23T10:51:00Z,00000200,01000000,0002.61,0002.09,0001.26,0000.20,0000.33,0000.16,0000.88,0001.10,0000.10,18.3,25.0,01.9,01.2,0674.2,31.1
2021-04-23T10:52:00Z,00000200,01000000,0002.57,0002.05,0001.29,0000.88,0000.35,0000.01,0001.55,0001.44,0001.20,18.3,25.0,02.0,01.3,0674.2,31.1
2021-04-23T10:53:00Z,00000200,00000000,0003.06,0001.92,0001.23,0000.17,0000.25,0000.33,0000.23,0000.61,0000.50,18.3,25.0,02.0,01.3,0674.2,31.1
2021-04-23T10:54:00Z,00000200,01000000,0003.24,0002.02,0001.19,0000.48,0000.24,0000.32,0000.79,0000.36,0000.41,18.3,25.0,01.8,01.2,0674.2,31.1
2021-04-23T10:55:00Z,00000200,01000000,0002.89,0001.72,0001.02,-000.04,0000.30,0000.25,0000.73,0000.74,0000.47,18.3,25.0,01.6,01.1,0674.2,31.1
2021-04-23T10:56:00Z,00000200,01000000,0002.77,0001.85,0001.37,0000.26,0000.47,0000.32,0001.31,0001.17,0000.61,18.4,25.0,01.6,01.1,0674.2,31.1
2021-04-23T10:57:00Z,00000200,40000000,,,,,,,-000.10,-000.33,0000.34,18.4,25.1,02.0,01.3,0674.2,31.1
2021-04-23T10:58:00Z,00000200,61000000,,,,,,,0000.43,0000.37,0000.08,18.2,25.2,01.5,01.0,0673.3,31.1
2021-04-23T10:59:00Z,00000200,20000000,,,,,,,-000.12,0000.41,-000.06,18.2,25.3,01.5,01.0,0673.3,31.1
